1484521200.44,4770,5.38,72460.3,-19.71,-20.63,-20.63,0,*5A
1484521201.67,4771,5.38,72462.8,-19.71,-20.63,-20.59,0,*52
1484521202.89,4772,5.38,72462.0,-19.71,-20.63,-20.63,0,*58
1484521204.12,4773,5.38,72462.0,-19.71,-20.63,-20.59,0,*50
1484521205.34,4774,5.31,72458.3,-19.71,-20.63,-20.63,0,*5E
1484521206.57,4775,5.38,72462.3,-19.71,-20.59,-20.59,0,*5F
1484521207.8,4776,5.38,72460.3,-19.71,-20.63,-20.59,0,*55
1484521209.02,4777,5.31,72460.3,-19.71,-20.63,-20.59,0,*54
1484521210.25,4778,5.38,72460.0,-19.71,-20.63,-20.59,0,*5B
1484521211.47,4779,5.38,72462.3,-19.71,-20.59,-20.59,0,*53
1484521212.7,4780,5.38,72464.3,-19.71,-20.59,-20.63,0,*5C
1484521213.93,4781,5.38,72462.0,-19.71,-20.59,-20.59,0,*54
1484521215.16,4782,5.31,72462.3,-19.71,-20.59,-20.63,0,*5E
1484521216.41,4783,5.38,72462.0,-19.71,-20.49,-20.59,0,*57
1484521217.66,4784,5.31,72462.5,-19.71,-20.63,-20.49,0,*59
1484521218.91,4785,5.38,72462.5,-19.71,-20.59,-20.49,0,*51
1484521220.19,4786,5.38,72462.0,-19.71,-20.49,-20.49,0,*53
1484521221.41,4787,5.38,72464.8,-19.71,-20.59,-20.59,0,*52
1484521222.66,4788,5.38,72460.8,-19.69,-20.63,-20.59,0,*5D
1484521223.92,4789,5.38,72460.5,-19.69,-20.59,-20.59,0,*55
1484521225.16,4790,5.38,72462.3,-19.69,-20.63,-20.63,0,*5D
1484521226.41,4791,5.38,72462.5,-19.69,-20.63,-20.63,0,*5C
1484521227.67,4792,5.38,72460.5,-19.69,-20.59,-20.59,0,*5F
1484521228.92,4793,5.38,72460.0,-19.69,-20.59,-20.59,0,*5E
1484521230.14,4794,5.38,72462.8,-19.71,-20.63,-20.63,0,*50
1484521231.39,4795,5.38,72464.3,-19.69,-20.63,-20.63,0,*58
1484521232.64,4796,5.38,72466.0,-19.69,-20.63,-20.59,0,*52
1484521233.89,4797,5.38,72460.8,-19.69,-20.63,-20.59,0,*53
1484521235.12,4798,5.38,72466.3,-19.71,-20.59,-20.63,0,*55
1484521236.37,4799,5.31,72462.5,-19.69,-20.63,-20.63,0,*54
1484521237.62,4800,5.38,72460.3,-19.69,-20.63,-20.63,0,*5B
1484521238.87,4801,5.38,72462.0,-19.69,-20.59,-20.63,0,*53
1484521240.12,4802,5.31,72462.3,-19.69,-20.59,-20.59,0,*59
1484521241.37,4803,5.31,72460.5,-19.69,-20.63,-20.59,0,*51
1484521242.6,4804,5.31,72458.8,-19.67,-20.59,-20.59,0,*51
1484521243.85,4805,5.31,72460.0,-19.69,-20.63,-20.59,0,*57
1484521245.08,4806,5.31,72460.5,-19.67,-20.59,-20.59,0,*53
1484521246.3,4807,5.31,72462.3,-19.71,-20.63,-20.59,0,*5C
1484521247.55,4808,5.38,72466.0,-19.69,-20.63,-20.63,0,*53
1484521248.8,4809,5.31,72462.0,-19.69,-20.69,-20.63,0,*58
1484521250.02,4810,5.38,72462.0,-19.71,-20.63,-20.63,0,*53
1484521251.25,4811,5.31,72458.0,-19.71,-20.63,-20.63,0,*52
1484521252.47,4812,5.38,72462.8,-19.71,-20.63,-20.63,0,*51
1484521253.72,4813,5.38,72460.0,-19.69,-20.59,-20.63,0,*50
1484521254.97,4814,5.31,72462.8,-19.69,-20.69,-20.63,0,*54
1484521256.22,4815,5.31,72460.0,-19.69,-20.63,-20.59,0,*56
1484521257.46,4816,5.38,72464.0,-19.69,-20.63,-20.63,0,*5C
1484521258.74,4817,5.38,72464.8,-19.67,-20.53,-20.53,0,*53
1484521259.98,4818,5.38,72462.5,-19.69,-20.63,-20.69,0,*58
1484521261.21,4819,5.31,72462.8,-19.67,-20.59,-20.59,0,*5D
1484521262.46,4820,5.31,72462.8,-19.69,-20.63,-20.63,0,*59
1484521263.71,4821,5.31,72462.5,-19.69,-20.59,-20.63,0,*51
1484521264.94,4822,5.38,72462.8,-19.71,-20.63,-20.63,0,*52
1484521266.17,4823,5.31,72458.8,-19.73,-20.69,-20.69,0,*51
1484521267.39,4824,5.31,72460.8,-19.71,-20.63,-20.63,0,*54
1484521268.64,4825,5.38,72462.5,-19.69,-20.63,-20.63,0,*5C
1484521269.89,4826,5.38,72464.0,-19.69,-20.63,-20.63,0,*5F
1484521271.13,4827,5.31,72462.3,-19.69,-20.63,-20.63,0,*5E
1484521272.36,4828,5.38,72462.5,-19.71,-20.63,-20.63,0,*58
1484521273.6,4829,5.38,72462.0,-19.71,-20.79,-20.63,0,*52
1484521274.83,4830,5.38,72462.8,-19.71,-20.63,-20.63,0,*51
1484521276.05,4831,5.31,72462.5,-19.71,-20.63,-20.63,0,*50
1484521277.3,4832,5.38,72462.8,-19.69,-20.63,-20.63,0,*5A
1484521278.55,4833,5.31,72462.5,-19.69,-20.69,-20.63,0,*51
1484521279.79,4834,5.31,72458.0,-19.69,-20.69,-20.63,0,*56
1484521281.01,4835,5.38,72462.8,-19.71,-20.69,-20.63,0,*5E
1484521282.26,4836,5.31,72462.8,-19.69,-20.63,-20.63,0,*5E
1484521283.48,4837,5.38,72464.0,-19.71,-20.63,-20.69,0,*5C
1484521284.7,4838,5.38,72462.3,-19.71,-20.63,-20.69,0,*53
1484521285.92,4839,5.31,72460.0,-19.71,-20.63,-20.69,0,*52
1484521287.15,4840,5.31,72462.8,-19.71,-20.63,-20.63,0,*56
1484521288.39,4841,5.38,72460.5,-19.69,-20.63,-20.63,0,*5E
1484521289.62,4842,5.38,72462.5,-19.67,-20.59,-20.63,0,*5A
1484521290.87,4843,5.38,72462.5,-19.69,-20.63,-20.69,0,*56
1484521292.11,4844,5.38,72464.8,-19.69,-20.63,-20.69,0,*51
1484521293.34,4845,5.38,72464.3,-19.67,-20.59,-20.63,0,*5D
1484521294.58,4846,5.31,72460.3,-19.69,-20.69,-20.63,0,*53
1484521295.83,4847,5.38,72462.8,-19.69,-20.69,-20.63,0,*52
1484521297.07,4848,5.38,72466.8,-19.69,-20.69,-20.63,0,*5D
1484521298.3,4849,5.38,72464.8,-19.71,-20.63,-20.63,0,*5F
1484521299.52,4850,5.31,72460.8,-19.71,-20.63,-20.63,0,*57
1484521300.74,4851,5.31,72460.5,-19.71,-20.63,-20.69,0,*5C
1484521301.96,4852,5.38,72464.5,-19.71,-20.63,-20.69,0,*5F
1484521303.2,4853,5.31,72462.3,-19.71,-20.69,-20.79,0,*55
1484521304.42,4854,5.31,72462.3,-19.71,-20.69,-20.63,0,*59
1484521305.66,4855,5.38,72462.0,-19.69,-20.69,-20.69,0,*5B
1484521306.9,4856,5.31,72462.8,-19.69,-20.69,-20.69,0,*58
1484521308.12,4857,5.38,72464.8,-19.71,-20.69,-20.69,0,*50
1484521309.36,4858,5.31,72462.3,-19.69,-20.69,-20.69,0,*56
1484521310.58,4859,5.38,72464.0,-19.71,-20.69,-20.69,0,*5E
1484521311.82,4860,5.38,72462.0,-19.71,-20.69,-20.79,0,*55
1484521313.06,4861,5.31,72460.8,-19.69,-20.69,-20.69,0,*5C
1484521314.33,4862,5.31,72462.0,-19.69,-20.79,-20.69,0,*5E
1484521315.57,4863,5.31,72462.5,-19.69,-20.69,-20.69,0,*5E
1484521316.78,4864,5.38,72462.0,-19.71,-20.69,-20.69,0,*50
1484521318.0,4865,5.31,72458.5,-19.71,-20.63,-20.69,0,*5B
1484521319.25,4866,5.31,72460.3,-19.69,-20.69,-20.63,0,*51
1484521320.49,4867,5.31,72458.8,-19.69,-20.69,-20.63,0,*50
1484521321.72,4868,5.38,72462.3,-19.71,-20.63,-20.59,0,*55
1484521322.95,4869,5.31,72458.5,-19.71,-20.59,-20.63,0,*54
1484521324.17,4870,5.31,72460.0,-19.71,-20.63,-20.59,0,*5C
1484521325.4,4871,5.31,72460.8,-19.71,-20.63,-20.59,0,*5D
1484521326.62,4872,5.31,72462.8,-19.71,-20.59,-20.63,0,*5E
1484521327.9,4873,5.31,72462.5,-19.69,-20.49,-20.59,0,*5E
1484521329.14,4874,5.38,72462.3,-19.73,-20.63,-20.63,0,*53
1484521330.38,4875,5.31,72462.0,-19.71,-20.49,-20.43,0,*5A
1484521331.66,4876,5.38,72460.8,-19.71,-20.49,-20.49,0,*53
1484521332.89,4877,5.38,72460.3,-19.71,-20.43,-20.43,0,*52
1484521334.16,4878,5.38,72462.8,-19.71,-20.49,-20.49,0,*5D
1484521335.46,4879,5.31,72462.0,-19.69,-20.49,-20.49,0,*55
1484521336.75,4880,5.38,72464.0,-19.69,-20.49,-20.35,0,*58
1484521338.0,4881,5.38,72464.3,-19.71,-20.43,-20.49,0,*51
1484521339.28,4882,5.31,72462.3,-19.69,-20.49,-20.43,0,*5B
1484521340.5,4883,5.31,72462.8,-19.67,-20.43,-20.29,0,*52
1484521341.77,4884,5.31,72460.0,-19.69,-20.49,-20.43,0,*5D
1484521343.05,4885,5.38,72462.3,-19.69,-20.43,-20.49,0,*5C
1484521344.3,4886,5.38,72464.5,-19.69,-20.43,-20.43,0,*55
1484521345.56,4887,5.31,72462.8,-19.69,-20.59,-20.43,0,*5F
1484521346.78,4888,5.31,72460.3,-19.71,-20.43,-20.43,0,*52
1484521348.04,4889,5.38,72460.3,-19.71,-20.59,-20.49,0,*52
1484521349.34,4890,5.38,72466.3,-19.69,-20.49,-20.49,0,*52
1484521350.61,4891,5.38,72462.5,-19.67,-20.53,-20.53,0,*5D
1484521351.84,4892,5.38,72464.0,-19.71,-20.59,-20.59,0,*59
1484521353.09,4893,5.31,72460.5,-19.71,-20.49,-20.59,0,*59
1484521354.31,4894,5.38,72462.5,-19.67,-20.59,-20.59,0,*58
1484521355.59,4895,5.31,72462.5,-19.69,-20.59,-20.49,0,*56
1484521356.84,4896,5.31,72460.8,-19.67,-20.53,-20.43,0,*5B
1484521358.11,4897,5.31,72462.0,-19.69,-20.49,-20.63,0,*5D
1484521359.36,4898,5.38,72464.5,-19.69,-20.63,-20.59,0,*53
1484521360.62,4899,5.31,72460.0,-19.69,-20.59,-20.59,0,*5B
1484521361.87,4900,5.31,72460.3,-19.69,-20.63,-20.59,0,*53
1484521363.12,4901,5.31,72462.8,-19.69,-20.59,-20.63,0,*52
1484521364.35,4902,5.31,72462.0,-19.71,-20.59,-20.59,0,*51
1484521365.6,4903,5.38,72464.8,-19.69,-20.63,-20.63,0,*59
1484521366.85,4904,5.38,72464.5,-19.69,-20.59,-20.59,0,*5E
1484521368.1,4905,5.31,72460.0,-19.69,-20.63,-20.63,0,*5F
1484521369.34,4906,5.38,72466.8,-19.69,-20.63,-20.63,0,*5C
1484521370.6,4907,5.38,72466.0,-19.69,-20.59,-20.63,0,*54
1484521371.84,4908,5.31,72464.5,-19.69,-20.63,-20.63,0,*52
1484521373.1,4909,5.31,72466.3,-19.69,-20.59,-20.63,0,*5A
1484521374.35,4910,5.38,72466.8,-19.69,-20.63,-20.63,0,*5B
1484521375.59,4911,5.38,72466.8,-19.69,-20.63,-20.59,0,*53
1484521376.82,4912,5.31,72462.8,-19.67,-20.59,-20.59,0,*57
1484521378.08,4913,5.38,72464.0,-19.69,-20.59,-20.63,0,*51
1484521379.33,4914,5.38,72464.8,-19.69,-20.59,-20.63,0,*56
1484521380.58,4915,5.38,72466.0,-19.69,-20.63,-20.59,0,*57
1484521381.81,4916,5.38,72462.5,-19.67,-20.59,-20.59,0,*53
1484521383.05,4917,5.38,72466.3,-19.69,-20.63,-20.63,0,*5C
1484521384.3,4918,5.38,72466.3,-19.69,-20.69,-20.63,0,*59
1484521385.55,4919,5.31,72460.8,-19.69,-20.69,-20.63,0,*58
1484521386.79,4920,5.38,72464.5,-19.69,-20.69,-20.63,0,*52
1484521388.04,4921,5.38,72466.5,-19.69,-20.69,-20.63,0,*53
1484521389.29,4922,5.38,72466.0,-19.69,-20.63,-20.63,0,*5A
1484521390.53,4923,5.38,72464.8,-19.69,-20.63,-20.63,0,*5B
1484521391.78,4924,5.38,72466.8,-19.69,-20.63,-20.63,0,*5C
1484521393.01,4925,5.31,72460.5,-19.67,-20.59,-20.59,0,*53
1484521394.26,4926,5.38,72464.0,-19.69,-20.63,-20.63,0,*5E
1484521395.49,4927,5.31,72462.5,-19.67,-20.59,-20.59,0,*51
1484521396.74,4928,5.31,72460.8,-19.69,-20.63,-20.63,0,*50
1484521397.98,4929,5.38,72462.8,-19.69,-20.69,-20.63,0,*5B
1484521399.21,4930,5.38,72464.8,-19.67,-20.59,-20.59,0,*57
1484521400.46,4931,5.38,72464.3,-19.69,-20.69,-20.63,0,*52
1484521401.71,4932,5.38,72466.0,-19.69,-20.69,-20.63,0,*51
1484521402.95,4933,5.38,72466.0,-19.69,-20.69,-20.63,0,*50
1484521404.2,4934,5.38,72464.5,-19.69,-20.69,-20.63,0,*57
1484521405.44,4935,5.38,72466.5,-19.69,-20.69,-20.63,0,*56
1484521406.69,4936,5.38,72466.8,-19.69,-20.69,-20.63,0,*55
1484521407.93,4937,5.38,72466.5,-19.69,-20.69,-20.63,0,*54
1484521409.2,4938,5.38,72466.0,-19.69,-20.79,-20.63,0,*5A
1484521410.45,4939,5.38,72462.8,-19.69,-20.69,-20.63,0,*5A
1484521411.7,4940,5.38,72466.0,-19.69,-20.69,-20.63,0,*54
1484521412.94,4941,5.38,72462.8,-19.69,-20.63,-20.63,0,*5F
1484521414.19,4942,5.31,72462.3,-19.69,-20.63,-20.63,0,*5C
1484521415.43,4943,5.31,72462.5,-19.69,-20.69,-20.69,0,*5D
1484521416.67,4944,5.31,72462.8,-19.69,-20.69,-20.69,0,*5A
1484521417.9,4945,5.38,72460.8,-19.67,-20.63,-20.63,0,*55
1484521419.15,4946,5.38,72462.3,-19.69,-20.69,-20.63,0,*52
1484521420.39,4947,5.38,72462.8,-19.69,-20.69,-20.63,0,*53
1484521421.66,4948,5.38,72464.8,-19.69,-20.79,-20.63,0,*5D
1484521422.91,4949,5.31,72462.3,-19.69,-20.63,-20.59,0,*5E
1484521424.16,4950,5.38,72464.8,-19.69,-20.63,-20.59,0,*56
1484521425.41,4951,5.38,72466.5,-19.69,-20.63,-20.63,0,*5E
1484521426.63,4952,5.38,72464.8,-19.71,-20.63,-20.63,0,*54
1484521427.86,4953,5.38,72464.0,-19.71,-20.63,-20.63,0,*55
1484521429.08,4954,5.38,72466.0,-19.71,-20.63,-20.63,0,*52
1484521430.3,4955,5.31,72464.3,-19.71,-20.63,-20.63,0,*53
1484521431.53,4956,5.31,72462.3,-19.71,-20.63,-20.63,0,*50
1484521432.78,4957,5.38,72466.0,-19.69,-20.63,-20.59,0,*51
1484521434.03,4958,5.31,72460.3,-19.69,-20.59,-20.63,0,*5E
1484521435.28,4959,5.38,72462.8,-19.69,-20.63,-20.63,0,*56
1484521436.53,4960,5.38,72464.8,-19.69,-20.63,-20.63,0,*5C
1484521437.77,4961,5.38,72464.3,-19.69,-20.63,-20.63,0,*5D
1484521439.03,4962,5.31,72462.8,-19.69,-20.59,-20.59,0,*5E
1484521440.28,4963,5.38,72466.0,-19.69,-20.63,-20.59,0,*56
1484521441.53,4964,5.38,72466.0,-19.69,-20.63,-20.63,0,*58
1484521442.78,4965,5.31,72462.5,-19.69,-20.59,-20.59,0,*59
1484521444.03,4966,5.31,72462.8,-19.69,-20.63,-20.59,0,*53
1484521445.28,4967,5.38,72464.5,-19.69,-20.63,-20.63,0,*5B
1484521446.53,4968,5.31,72464.8,-19.69,-20.63,-20.59,0,*5D
1484521447.77,4969,5.31,72462.8,-19.69,-20.63,-20.63,0,*55
1484521449.02,4970,5.31,72464.8,-19.69,-20.63,-20.59,0,*54
1484521450.27,4971,5.38,72466.5,-19.69,-20.63,-20.63,0,*5C
1484521451.52,4972,5.38,72466.8,-19.69,-20.63,-20.59,0,*56
1484521452.77,4973,5.38,72466.3,-19.69,-20.63,-20.63,0,*5E
1484521454.02,4974,5.38,72466.3,-19.69,-20.63,-20.63,0,*59
1484521455.27,4975,5.38,72466.5,-19.69,-20.63,-20.63,0,*58
1484521456.49,4976,5.31,72464.8,-19.71,-20.63,-20.63,0,*52
1484521457.71,4977,5.31,72466.8,-19.71,-20.63,-20.63,0,*53
1484521458.94,4978,5.38,72466.8,-19.71,-20.63,-20.63,0,*5C
1484521460.16,4979,5.31,72462.8,-19.71,-20.63,-20.63,0,*5D
1484521461.38,4980,5.38,72466.3,-19.71,-20.69,-20.63,0,*51
1484521462.6,4981,5.31,72460.5,-19.71,-20.69,-20.69,0,*5A
1484521463.84,4982,5.38,72468.8,-19.71,-20.83,-20.69,0,*5D
1484521465.08,4983,5.38,72464.0,-19.71,-20.69,-20.79,0,*59
1484521466.32,4984,5.31,72466.8,-19.69,-20.69,-20.69,0,*56
1484521467.57,4985,5.31,72462.5,-19.71,-20.79,-20.69,0,*5F
1484521468.78,4986,5.31,72464.5,-19.71,-20.69,-20.69,0,*5D
1484521470.02,4987,5.38,72466.5,-19.71,-20.79,-20.69,0,*5D
1484521471.26,4988,5.31,72462.8,-19.71,-20.69,-20.79,0,*52
1484521472.53,4989,5.38,72466.0,-19.69,-20.69,-20.79,0,*5A
1484521473.79,4990,5.31,72462.5,-19.69,-20.79,-20.69,0,*52
1484521475.08,4991,5.38,72464.5,-19.69,-20.79,-20.79,0,*52
1484521476.32,4992,5.38,72466.5,-19.69,-20.69,-20.69,0,*51
1484521477.54,4993,5.38,72466.3,-19.71,-20.69,-20.69,0,*59
1484521478.8,4994,5.38,72464.0,-19.71,-20.79,-20.79,0,*5E
1484521480.07,4995,5.38,72466.8,-19.71,-20.83,-20.79,0,*5A
1484521481.31,4996,5.31,72462.8,-19.71,-20.79,-20.69,0,*5D
1484521482.57,4997,5.38,72464.5,-19.71,-20.79,-20.79,0,*5D
1484521483.83,4998,5.38,72464.3,-19.71,-20.79,-20.79,0,*52
1484521485.07,4999,5.38,72466.5,-19.73,-20.73,-20.73,0,*51
1484521486.31,5000,5.31,72464.8,-19.71,-20.69,-20.79,0,*5A
1484521487.57,5001,5.38,72466.8,-19.71,-20.79,-20.79,0,*5A
1484521488.79,5002,5.31,72464.0,-19.71,-20.69,-20.69,0,*59
1484521490.0,5003,5.38,72466.0,-19.71,-20.69,-20.69,0,*58
1484521491.24,5004,5.38,72464.8,-19.71,-20.79,-20.69,0,*5E
1484521492.51,5005,5.38,72466.5,-19.69,-20.69,-20.79,0,*56
1484521493.74,5006,5.38,72464.8,-19.73,-20.73,-20.73,0,*5F
1484521495.0,5007,5.31,72464.0,-19.71,-20.79,-20.79,0,*5C
1484521496.22,5008,5.31,72464.0,-19.71,-20.69,-20.69,0,*53
1484521497.44,5009,5.31,72462.3,-19.71,-20.69,-20.69,0,*52
1484521498.68,5010,5.31,72462.0,-19.71,-20.79,-20.69,0,*5B
1484521499.89,5011,5.31,72462.0,-19.71,-20.69,-20.69,0,*5B
1484521501.13,5012,5.38,72466.0,-19.71,-20.79,-20.69,0,*59
1484521502.37,5013,5.31,72460.5,-19.71,-20.79,-20.69,0,*58
1484521503.61,5014,5.38,72464.3,-19.71,-20.69,-20.79,0,*5F
1484521504.9,5015,5.31,72460.5,-19.73,-20.83,-20.83,0,*5D
1484521506.16,5016,5.38,72466.8,-19.71,-20.79,-20.79,0,*5C
1484521507.42,5017,5.31,72460.3,-19.71,-20.79,-20.79,0,*5D
1484521508.66,5018,5.38,72466.3,-19.71,-20.79,-20.69,0,*53
1484521509.93,5019,5.31,72462.3,-19.71,-20.79,-20.79,0,*53
1484521511.19,5020,5.31,72464.0,-19.71,-20.79,-20.79,0,*59
1484521512.45,5021,5.38,72466.0,-19.73,-20.89,-20.83,0,*50
1484521513.72,5022,5.38,72466.3,-19.71,-20.83,-20.83,0,*5B
1484521514.99,5023,5.38,72466.0,-19.73,-20.99,-20.89,0,*59
1484521516.26,5024,5.31,72466.3,-19.71,-20.83,-20.83,0,*5D
1484521517.53,5025,5.38,72466.5,-19.73,-20.83,-20.89,0,*54
1484521518.77,5026,5.31,72462.0,-19.73,-20.89,-20.89,0,*5D
1484521520.03,5027,5.31,72464.0,-19.73,-20.89,-20.99,0,*5D
1484521521.29,5028,5.38,72464.8,-19.73,-20.89,-20.99,0,*52
1484521522.56,5029,5.38,72464.0,-19.73,-20.89,-20.99,0,*53
1484521523.84,5030,5.38,72466.8,-19.73,-20.99,-20.99,0,*5A
1484521525.06,5031,5.31,72464.3,-19.71,-20.93,-20.93,0,*59
1484521526.32,5032,5.38,72466.3,-19.73,-20.89,-20.99,0,*59
1484521527.61,5033,5.38,72466.0,-19.73,-20.99,-20.99,0,*59
1484521528.89,5034,5.38,72464.5,-19.73,-20.99,-20.99,0,*5E
1484521530.14,5035,5.38,72464.0,-19.73,-20.89,-20.89,0,*5F
1484521531.4,5036,5.38,72464.3,-19.73,-20.89,-20.99,0,*5D
1484521532.68,5037,5.38,72468.0,-19.73,-21.03,-20.99,0,*5F
1484521533.97,5038,5.38,72466.3,-19.73,-20.99,-20.99,0,*52
1484521535.25,5039,5.31,72464.3,-19.73,-20.99,-20.99,0,*53
1484521536.52,5040,5.38,72464.8,-19.73,-20.89,-20.99,0,*5C
1484521537.78,5041,5.31,72462.0,-19.73,-20.89,-20.99,0,*5D
1484521539.06,5042,5.31,72466.8,-19.73,-20.99,-20.99,0,*5F
1484521540.32,5043,5.31,72462.5,-19.77,-21.03,-20.93,0,*52
1484521541.61,5044,5.31,72466.8,-19.77,-21.03,-21.03,0,*5D
1484521542.88,5045,5.31,72464.3,-19.73,-20.99,-20.89,0,*59
1484521544.14,5046,5.31,72464.8,-19.73,-20.89,-20.99,0,*5A
1484521545.37,5047,5.31,72464.5,-19.77,-21.17,-20.93,0,*53
1484521546.66,5048,5.31,72460.3,-19.77,-21.03,-21.03,0,*51
1484521547.92,5049,5.38,72466.5,-19.77,-21.17,-21.03,0,*55
1484521549.16,5050,5.31,72462.5,-19.79,-21.03,-20.93,0,*5E
1484521550.41,5051,5.31,72466.0,-19.77,-21.09,-21.03,0,*53
1484521551.64,5052,5.31,72462.0,-19.77,-21.09,-21.09,0,*5A
1484521552.86,5053,5.31,72462.5,-19.77,-21.09,-21.09,0,*5B
1484521554.11,5054,5.38,72466.0,-19.77,-21.09,-21.03,0,*56
1484521555.37,5055,5.31,72466.3,-19.77,-21.03,-21.09,0,*57
1484521556.65,5056,5.31,72464.3,-19.73,-20.99,-20.99,0,*5A
1484521557.89,5057,5.38,72466.8,-19.77,-21.09,-21.17,0,*50
1484521559.11,5058,5.31,72466.0,-19.77,-21.09,-21.09,0,*50
1484521560.34,5059,5.31,72462.5,-19.79,-21.09,-21.03,0,*55
1484521561.56,5060,5.38,72464.5,-19.77,-21.09,-21.09,0,*5B
1484521562.8,5061,5.38,72466.0,-19.77,-21.17,-20.93,0,*57
1484521564.03,5062,5.31,72462.8,-19.77,-21.09,-21.17,0,*56
1484521565.23,5063,5.31,72462.0,-19.79,-21.09,-21.09,0,*56
1484521566.49,5064,5.31,72464.0,-19.77,-21.03,-21.09,0,*55
1484521567.69,5065,5.31,72462.0,-19.79,-21.09,-21.17,0,*5F
1484521568.98,5066,5.31,72462.5,-19.77,-21.03,-21.03,0,*5D
1484521570.18,5067,5.31,72460.0,-19.79,-21.09,-21.09,0,*52
1484521571.4,5068,5.38,72464.0,-19.81,-21.09,-21.09,0,*5A
1484521572.63,5069,5.31,72460.8,-19.79,-21.09,-21.03,0,*56
1484521573.89,5070,5.31,72456.8,-19.77,-21.09,-21.03,0,*50
1484521575.12,5071,5.38,72466.3,-19.79,-21.17,-21.03,0,*50
1484521576.38,5072,5.38,72462.8,-19.79,-21.03,-21.03,0,*56
1484521577.64,5073,5.31,72458.8,-19.79,-21.03,-21.03,0,*57
1484521578.88,5074,5.31,72460.8,-19.79,-21.09,-21.03,0,*5A
1484521580.13,5075,5.31,72462.0,-19.77,-21.09,-21.03,0,*55
1484521581.36,5076,5.31,72460.8,-19.79,-21.03,-21.09,0,*58
1484521582.61,5077,5.31,72462.8,-19.81,-21.03,-21.09,0,*5E
1484521583.87,5078,5.31,72460.3,-19.81,-21.09,-21.03,0,*51
1484521585.07,5079,5.31,72462.3,-19.79,-21.17,-21.09,0,*52
1484521586.27,5080,5.31,72460.5,-19.79,-21.09,-21.09,0,*5B
1484521587.48,5081,5.31,72464.8,-19.83,-21.17,-21.09,0,*50
1484521588.71,5082,5.31,72462.8,-19.79,-21.09,-21.03,0,*53
1484521589.94,5083,5.31,72460.0,-19.79,-21.09,-21.03,0,*52
1484521591.17,5084,5.38,72464.5,-19.79,-21.09,-21.03,0,*55
1484521592.42,5085,5.31,72464.5,-19.81,-21.03,-21.09,0,*53
1484521593.68,5086,5.31,72462.5,-19.83,-21.03,-21.03,0,*58
1484521594.91,5087,5.31,72464.8,-19.83,-21.09,-21.03,0,*53
1484521596.11,5088,5.31,72464.8,-19.83,-21.13,-21.09,0,*5D
1484521597.36,5089,5.38,72466.0,-19.81,-21.09,-21.03,0,*5F
1484521598.56,5090,5.31,72464.0,-19.83,-21.17,-21.09,0,*50
1484521599.8,5091,5.38,72466.8,-19.83,-21.13,-21.23,0,*5D
1484521601.03,5092,5.31,72466.3,-19.81,-21.09,-21.17,0,*50
1484521602.26,5093,5.31,72462.3,-19.81,-21.09,-21.09,0,*5E
1484521603.46,5094,5.31,72460.8,-19.83,-21.09,-21.13,0,*50
1484521604.68,5095,5.31,72464.3,-19.81,-21.09,-21.09,0,*58
1484521605.91,5096,5.31,72460.3,-19.81,-21.09,-21.09,0,*5B
1484521607.16,5097,5.31,72462.5,-19.81,-21.09,-21.03,0,*50
1484521608.45,5098,5.31,72464.8,-19.81,-21.03,-21.03,0,*55
1484521609.7,5099,5.31,72462.5,-19.81,-21.03,-21.09,0,*5E
1484521610.96,5100,5.31,72460.8,-19.81,-21.03,-20.93,0,*5D
1484521612.22,5101,5.31,72462.5,-19.81,-20.93,-21.03,0,*5C
1484521613.5,5102,5.38,72466.5,-19.81,-21.03,-21.03,0,*57
1484521614.76,5103,5.38,72466.0,-19.83,-20.99,-20.99,0,*54
1484521616.0,5104,5.31,72460.3,-19.81,-20.93,-20.93,0,*51
1484521617.23,5105,5.31,72460.3,-19.83,-20.93,-20.99,0,*58
1484521618.46,5106,5.31,72462.8,-19.81,-20.93,-20.93,0,*53
1484521619.71,5107,5.38,72464.3,-19.81,-20.89,-20.89,0,*52
1484521620.95,5108,5.38,72464.3,-19.81,-20.89,-20.89,0,*5D
1484521622.17,5109,5.38,72464.3,-19.79,-20.89,-20.89,0,*5B
1484521623.43,5110,5.31,72460.5,-19.83,-20.83,-20.83,0,*56
1484521624.69,5111,5.31,72462.0,-19.83,-20.83,-20.83,0,*57
1484521625.9,5112,5.38,72466.0,-19.83,-20.93,-20.93,0,*54
1484521627.13,5113,5.31,72460.5,-19.83,-20.93,-20.83,0,*54
1484521628.38,5114,5.31,72462.5,-19.83,-20.83,-20.83,0,*52
1484521629.65,5115,5.31,72462.5,-19.81,-20.79,-20.89,0,*5E
1484521630.91,5116,5.31,72462.0,-19.83,-20.83,-20.83,0,*50
1484521632.14,5117,5.31,72460.8,-19.83,-20.83,-20.93,0,*50
1484521633.4,5118,5.31,72462.5,-19.83,-20.79,-20.83,0,*5B
1484521634.65,5119,5.31,72462.0,-19.83,-20.83,-20.83,0,*5F
1484521635.88,5120,5.31,72462.5,-19.83,-20.93,-20.83,0,*54
1484521637.14,5121,5.31,72458.5,-19.83,-20.83,-20.83,0,*54
1484521638.38,5122,5.38,72464.3,-19.83,-20.83,-20.93,0,*56
1484521639.63,5123,5.31,72460.8,-19.81,-20.89,-20.79,0,*5B
1484521640.89,5124,5.31,72460.8,-19.83,-20.83,-20.83,0,*51
1484521642.12,5125,5.31,72460.5,-19.83,-20.93,-20.83,0,*51
1484521643.36,5126,5.31,72462.8,-19.83,-20.83,-20.93,0,*52
1484521644.63,5127,5.31,72462.0,-19.81,-20.79,-20.79,0,*50
1484521645.84,5128,5.31,72464.3,-19.83,-20.93,-20.93,0,*5D
1484521647.12,5129,5.38,72464.0,-19.81,-20.79,-20.79,0,*5E
1484521648.35,5130,5.31,72462.8,-19.83,-20.93,-20.83,0,*55
1484521649.61,5131,5.31,72462.8,-19.83,-20.83,-20.83,0,*55
1484521650.86,5132,5.38,72466.0,-19.83,-20.83,-20.83,0,*56
1484521652.12,5133,5.38,72466.3,-19.83,-20.83,-20.83,0,*57
1484521653.37,5134,5.31,72460.3,-19.83,-20.79,-20.79,0,*50
1484521654.63,5135,5.31,72460.8,-19.83,-20.83,-20.83,0,*51
1484521655.89,5136,5.38,72466.0,-19.83,-20.83,-20.83,0,*52
1484521657.12,5137,5.31,72462.0,-19.83,-20.93,-20.83,0,*52
1484521658.38,5138,5.31,72462.8,-19.83,-20.83,-20.83,0,*5C
1484521659.63,5139,5.31,72464.3,-19.83,-20.83,-20.83,0,*5D
1484521660.89,5140,5.38,72464.3,-19.83,-20.83,-20.83,0,*53
1484521662.15,5141,5.38,72464.5,-19.83,-20.83,-20.83,0,*52
1484521663.43,5142,5.38,72466.0,-19.81,-20.79,-20.79,0,*53
1484521664.68,5143,5.31,72460.5,-19.83,-20.83,-20.83,0,*50
1484521665.94,5144,5.38,72460.8,-19.83,-20.83,-20.83,0,*57
1484521667.2,5145,5.31,72462.5,-19.83,-20.83,-20.83,0,*56
1484521668.48,5146,5.31,72462.5,-19.81,-20.83,-20.79,0,*52
1484521669.74,5147,5.31,72462.5,-19.81,-20.89,-20.79,0,*59
1484521671.0,5148,5.38,72462.3,-19.83,-20.83,-20.83,0,*5B
1484521672.25,5149,5.31,72462.0,-19.83,-20.83,-20.83,0,*5A
1484521673.51,5150,5.31,72460.0,-19.85,-20.93,-20.83,0,*55
1484521674.72,5151,5.31,72460.3,-19.83,-20.93,-20.93,0,*53
1484521675.95,5152,5.31,72462.8,-19.83,-20.93,-20.83,0,*51
1484521677.21,5153,5.38,72464.0,-19.83,-20.83,-20.83,0,*51
1484521678.44,5154,5.31,72458.3,-19.83,-20.93,-20.83,0,*57
1484521679.67,5155,5.31,72462.8,-19.83,-20.83,-20.93,0,*56
1484521680.91,5156,5.38,72462.8,-19.83,-20.99,-20.93,0,*5E
1484521682.16,5157,5.31,72462.8,-19.81,-20.89,-20.79,0,*58
1484521683.37,5158,5.38,72462.5,-19.83,-20.93,-20.93,0,*5A
1484521684.61,5159,5.38,72466.3,-19.83,-20.99,-20.93,0,*51
1484521685.84,5160,5.38,72466.3,-19.83,-20.93,-20.83,0,*50
1484521687.05,5161,5.38,72466.3,-19.83,-20.93,-20.93,0,*50
1484521688.33,5162,5.38,72464.5,-19.85,-20.99,-20.99,0,*55
1484521689.6,5163,5.38,72466.3,-19.85,-20.99,-20.93,0,*5E
1484521690.83,5164,5.31,72462.5,-19.85,-20.93,-20.93,0,*53
1484521692.06,5165,5.31,72460.8,-19.85,-20.93,-20.93,0,*52
1484521693.35,5166,5.38,72466.3,-19.85,-20.99,-20.99,0,*51
1484521694.61,5167,5.38,72466.0,-19.85,-20.93,-20.99,0,*5A
1484521695.9,5168,5.31,72460.0,-19.85,-20.99,-20.99,0,*5F
1484521697.12,5169,5.38,72464.8,-19.85,-21.09,-21.09,0,*5E
1484521698.35,5170,5.38,72464.0,-19.85,-21.09,-21.09,0,*56
1484521699.6,5171,5.38,72466.0,-19.85,-21.09,-20.99,0,*5F
1484521700.83,5172,5.38,72466.5,-19.85,-21.09,-21.09,0,*54
1484521702.09,5173,5.31,72464.8,-19.89,-21.13,-21.03,0,*58
1484521703.37,5174,5.38,72466.3,-19.85,-20.99,-20.99,0,*52
1484521704.66,5175,5.38,72466.8,-19.85,-20.99,-20.99,0,*53
1484521705.91,5176,5.31,72462.8,-19.85,-20.99,-21.09,0,*58